Overview Statistics Trail Chart Weather Telemetry Raw packets
 

This is the latest recevied weather packets stored in our database for station/object NC4M. If no packets are shown the sender has not sent any weather packets the latest 10 day(s).

<< 107 108 109 110 111 112 113 >>
Time Temp. Humidity Pressure Rain* Wind** Luminosity Snow
1787756365 27.22° C 74% 1017 hPa 0 mm - 116 W/m² -
1787756060 26.67° C 74% 1017 hPa 0 mm - 62 W/m² -
1787755755 26.67° C 75% 1017 hPa 0 mm - 67 W/m² -
1787755450 26.67° C 74% 1017 hPa 0 mm - 63 W/m² -
1787755150 26.11° C 73% 1017 hPa 0 mm - 61 W/m² -
1787754849 26.11° C 73% 1016.8 hPa 0 mm - 61 W/m² -
1787754548 26.11° C 73% 1016.9 hPa 0 mm - 60 W/m² -
1787754247 26.11° C 73% 1016.9 hPa 0 mm - 57 W/m² -
1787753942 26.11° C 78% 1016.9 hPa 0 mm - 68 W/m² -
1787753641 26.11° C 75% 1016.9 hPa 0 mm - 55 W/m² -
1787753340 25.56° C 78% 1016.9 hPa 0 mm - 54 W/m² -
1787753035 25.56° C 81% 1016.9 hPa 0 mm - 54 W/m² -
1787752734 25.56° C 78% 1016.9 hPa 0 mm - 52 W/m² -
1787752429 25° C 79% 1016.7 hPa 0 mm - 50 W/m² -
1787752124 25° C 78% 1016.7 hPa 0 mm - 50 W/m² -
1787751812 25° C 79% 1017.1 hPa 0 mm - 49 W/m² -
1787751507 24.44° C 81% 1017 hPa 0 mm - 49 W/m² -
1787751203 24.44° C 81% 1016.9 hPa 0 mm - 50 W/m² -
1787750898 23.89° C 84% 1016.9 hPa 0 mm - 47 W/m² -
1787750594 23.89° C 85% 1017.3 hPa 0 mm - 46 W/m² -
1787750288 23.33° C 85% 1017 hPa 0 mm - 49 W/m² -
1787749983 23.33° C 86% 1016.8 hPa 0 mm - 41 W/m² -
1787749680 22.78° C 86% 1016.8 hPa 0 mm - 40 W/m² -
1787749375 22.78° C 87% 1016.8 hPa 0 mm - 39 W/m² -
1787749075 22.78° C 88% 1016.9 hPa 0 mm - 38 W/m² -

* Rain latest hour (hover to see other rain measurements)
** Current wind speed in m/s (hover to see current wind gust speed)